TimeEDT,TemperatureF,Dew PointF,Humidity,Sea Level PressureIn,VisibilityMPH,Wind Direction,Wind SpeedMPH,Gust SpeedMPH,PrecipitationIn,Events,Conditions,WindDirDegrees,DateUTC
12:15 AM,69.8,66.2,88,29.93,5.0,Calm,Calm,-,N/A,,Clear,0,2013-09-04 04:15:00
12:35 AM,69.8,66.2,88,29.94,1.5,Calm,Calm,-,N/A,,Mist,0,2013-09-04 04:35:00
12:55 AM,68.0,66.2,94,29.94,0.5,NW,4.6,-,N/A,Fog,Fog,320,2013-09-04 04:55:00
1:15 AM,68.0,66.2,94,29.95,7.0,NNW,4.6,-,N/A,,Clear,340,2013-09-04 05:15:00
1:35 AM,71.6,64.4,78,29.95,10.0,North,6.9,-,N/A,,Clear,360,2013-09-04 05:35:00
1:55 AM,73.4,62.6,69,29.96,10.0,NNE,6.9,-,N/A,,Clear,20,2013-09-04 05:55:00
2:15 AM,71.6,62.6,73,29.96,10.0,North,8.1,-,N/A,,Clear,10,2013-09-04 06:15:00
2:35 AM,71.6,62.6,73,29.97,10.0,NNE,6.9,-,N/A,,Clear,20,2013-09-04 06:35:00
2:55 AM,71.6,60.8,69,29.98,10.0,North,5.8,-,N/A,,Clear,10,2013-09-04 06:55:00
3:15 AM,71.6,60.8,69,29.97,10.0,North,6.9,-,N/A,,Clear,360,2013-09-04 07:15:00
3:35 AM,71.6,60.8,69,29.98,10.0,North,5.8,-,N/A,,Clear,360,2013-09-04 07:35:00
3:55 AM,69.8,60.8,73,29.99,10.0,North,4.6,-,N/A,,Clear,350,2013-09-04 07:55:00
4:15 AM,69.8,60.8,73,29.99,10.0,North,8.1,-,N/A,,Scattered Clouds,10,2013-09-04 08:15:00
4:35 AM,69.8,59.0,68,29.99,10.0,North,6.9,-,N/A,,Scattered Clouds,350,2013-09-04 08:35:00
4:55 AM,68.0,59.0,73,29.99,10.0,North,6.9,-,N/A,,Clear,360,2013-09-04 08:55:00
5:15 AM,69.8,59.0,68,29.99,10.0,NNE,6.9,-,N/A,,Clear,20,2013-09-04 09:15:00
5:36 AM,68.0,59.0,73,30.00,10.0,NNE,4.6,-,N/A,,Clear,20,2013-09-04 09:36:00
5:55 AM,66.2,59.0,78,30.00,10.0,North,4.6,-,N/A,,Clear,10,2013-09-04 09:55:00
6:15 AM,66.2,60.8,83,30.01,10.0,North,6.9,-,N/A,,Scattered Clouds,360,2013-09-04 10:15:00
6:36 AM,68.0,59.0,73,30.02,10.0,North,5.8,-,N/A,,Scattered Clouds,360,2013-09-04 10:36:00
6:55 AM,68.0,59.0,73,30.03,10.0,NNE,4.6,-,N/A,,Scattered Clouds,20,2013-09-04 10:55:00
7:15 AM,69.8,59.0,68,30.04,10.0,North,5.8,-,N/A,,Scattered Clouds,10,2013-09-04 11:15:00
7:35 AM,69.8,60.8,73,30.04,10.0,NNE,4.6,-,N/A,,Scattered Clouds,20,2013-09-04 11:35:00
7:56 AM,71.6,60.8,69,30.05,10.0,North,5.8,-,N/A,,Clear,360,2013-09-04 11:56:00
8:16 AM,71.6,60.8,69,30.06,10.0,North,8.1,-,N/A,,Clear,10,2013-09-04 12:16:00
8:35 AM,73.4,60.8,65,30.06,10.0,NNE,6.9,-,N/A,,Clear,20,2013-09-04 12:35:00
8:55 AM,73.4,60.8,65,30.06,10.0,North,8.1,16.1,N/A,,Clear,360,2013-09-04 12:55:00
9:15 AM,75.2,60.8,61,30.07,10.0,North,9.2,-,N/A,,Clear,360,2013-09-04 13:15:00
9:35 AM,75.2,60.8,61,30.07,10.0,NNE,9.2,-,N/A,,Clear,20,2013-09-04 13:35:00
9:56 AM,75.2,60.8,61,30.07,10.0,NNW,8.1,-,N/A,,Clear,330,2013-09-04 13:56:00
10:16 AM,75.2,60.8,61,30.07,10.0,North,10.4,-,N/A,,Clear,350,2013-09-04 14:16:00
10:36 AM,78.8,60.8,54,30.08,10.0,North,9.2,-,N/A,,Clear,350,2013-09-04 14:36:00
10:56 AM,77.0,60.8,57,30.08,10.0,WNW,4.6,-,N/A,,Clear,290,2013-09-04 14:56:00
11:15 AM,78.8,60.8,54,30.08,10.0,North,5.8,-,N/A,,Clear,10,2013-09-04 15:15:00
11:36 AM,78.8,60.8,54,30.09,10.0,NNE,6.9,-,N/A,,Clear,20,2013-09-04 15:36:00
11:56 AM,80.6,59.0,48,30.09,10.0,WNW,6.9,-,N/A,,Clear,290,2013-09-04 15:56:00
12:17 PM,80.6,59.0,48,30.08,10.0,NW,5.8,-,N/A,,Clear,320,2013-09-04 16:17:00
12:36 PM,80.6,60.8,51,30.08,10.0,WNW,3.5,-,N/A,,Clear,290,2013-09-04 16:36:00
12:56 PM,80.6,60.8,51,30.08,10.0,West,5.8,-,N/A,,Clear,280,2013-09-04 16:56:00
1:15 PM,80.6,59.0,48,30.08,10.0,West,8.1,-,N/A,,Clear,270,2013-09-04 17:15:00
1:36 PM,80.6,60.8,51,30.08,10.0,WNW,5.8,10.4,N/A,,Clear,290,2013-09-04 17:36:00
1:55 PM,80.6,60.8,51,30.08,10.0,WNW,6.9,-,N/A,,Clear,300,2013-09-04 17:55:00
2:15 PM,80.6,60.8,51,30.08,10.0,West,9.2,-,N/A,,Clear,280,2013-09-04 18:15:00
2:35 PM,80.6,60.8,51,30.07,10.0,NW,9.2,-,N/A,,Clear,320,2013-09-04 18:35:00
2:55 PM,80.6,60.8,51,30.07,10.0,West,9.2,-,N/A,,Clear,280,2013-09-04 18:55:00
3:15 PM,80.6,62.6,54,30.06,10.0,West,6.9,-,N/A,,Clear,270,2013-09-04 19:15:00
3:35 PM,80.6,62.6,54,30.06,10.0,NW,9.2,-,N/A,,Clear,310,2013-09-04 19:35:00
3:55 PM,80.6,62.6,54,30.05,10.0,WNW,9.2,-,N/A,,Clear,290,2013-09-04 19:55:00
4:15 PM,80.6,62.6,54,30.05,10.0,West,4.6,-,N/A,,Clear,260,2013-09-04 20:15:00
4:35 PM,80.6,60.8,51,30.05,10.0,West,6.9,-,N/A,,Clear,280,2013-09-04 20:35:00
4:55 PM,82.4,60.8,48,30.04,10.0,WNW,6.9,-,N/A,,Clear,300,2013-09-04 20:55:00
5:16 PM,82.4,62.6,51,30.04,10.0,West,3.5,-,N/A,,Clear,270,2013-09-04 21:16:00
5:35 PM,80.6,60.8,51,30.04,10.0,WSW,4.6,-,N/A,,Clear,250,2013-09-04 21:35:00
5:55 PM,80.6,62.6,54,30.04,10.0,WSW,4.6,-,N/A,,Clear,240,2013-09-04 21:55:00
6:15 PM,80.6,62.6,54,30.04,10.0,West,4.6,-,N/A,,Clear,270,2013-09-04 22:15:00
6:35 PM,78.8,64.4,61,30.04,10.0,NW,3.5,-,N/A,,Clear,320,2013-09-04 22:35:00
6:55 PM,77.0,64.4,65,30.04,10.0,Calm,Calm,-,N/A,,Clear,0,2013-09-04 22:55:00
7:15 PM,75.2,64.4,69,30.04,10.0,Calm,Calm,-,N/A,,Clear,0,2013-09-04 23:15:00
7:35 PM,71.6,64.4,78,30.05,10.0,Calm,Calm,-,N/A,,Clear,0,2013-09-04 23:35:00
7:56 PM,71.6,64.4,78,30.05,10.0,Calm,Calm,-,N/A,,Clear,0,2013-09-04 23:56:00
8:15 PM,71.6,64.4,78,30.05,10.0,Calm,Calm,-,N/A,,Clear,0,2013-09-05 00:15:00
8:35 PM,69.8,64.4,83,30.06,10.0,Calm,Calm,-,N/A,,Clear,0,2013-09-05 00:35:00
8:55 PM,68.0,64.4,88,30.06,7.0,Calm,Calm,-,N/A,,Clear,0,2013-09-05 00:55:00
9:15 PM,68.0,64.4,88,30.07,10.0,Calm,Calm,-,N/A,,Clear,0,2013-09-05 01:15:00
9:35 PM,66.2,64.4,94,30.07,10.0,Calm,Calm,-,N/A,,Clear,0,2013-09-05 01:35:00
9:58 PM,66.2,62.6,88,30.07,10.0,Calm,Calm,-,N/A,,Clear,0,2013-09-05 01:58:00
10:16 PM,66.2,62.6,88,30.07,10.0,Calm,Calm,-,N/A,,Clear,0,2013-09-05 02:16:00
10:36 PM,66.2,62.6,88,30.07,10.0,South,3.5,-,N/A,,Clear,170,2013-09-05 02:36:00
10:55 PM,66.2,62.6,88,30.07,10.0,South,3.5,-,N/A,,Clear,180,2013-09-05 02:55:00
11:16 PM,66.2,62.6,88,30.07,10.0,South,3.5,-,N/A,,Clear,190,2013-09-05 03:16:00
11:38 PM,66.2,62.6,88,30.07,10.0,SSW,3.5,-,N/A,,Clear,200,2013-09-05 03:38:00
11:56 PM,66.2,62.6,88,30.07,10.0,SSW,3.5,-,N/A,,Clear,200,2013-09-05 03:56:00